www.pogodaiklimat.ru

ПОГОДА в Marree Aero

  • Прогноз погоды в Marree Aero
  • Монитор погоды в Marree Aero
  • Климат города

АРХИВ ПОГОДЫ в Marree Aero

Время (UTC), дата Ветер
(напр.,м/с)
 
Видим.   Явления Облачность Т
(С)
Тd
(С)
f
(%)
Тe
(С)
Тes
(С)
Комфортность P
(гПа)
Po
(гПа)
Тmin
(С)
Tmax
(С)
R
(мм)
S
(см)
08 14.01 Ю 8 н/о н/о +33.9 +8.5 21 +32 +32 жарко 1009.4 1003.7
09 14.01 Ю 10 н/о н/о +32.0 +8.9 24 +31 +31 жарко 1009.8 1004.1
10 14.01 Ю 11 н/о н/о +29.5 +11.5 33 +30 +30 жарко 1010.4 1004.7
11 14.01 Ю 10 н/о н/о +27.7 +12.1 38 +29 +29 жарко 1011.3 1005.6
12 14.01 Ю 10 н/о н/о +26.5 +12.2 41 +28 +28 жарко 1012.1 1006.4
13 14.01 Ю 9 н/о н/о +25.0 +12.9 47 +27 +27 жарко 1012.7 1007.0
14 14.01 Ю 6 н/о н/о +23.6 +13.2 52 +26 +26 жарко 1013.2 1007.5
15 14.01 Ю 5 н/о н/о +22.7 +13.5 56 +26 +26 жарко 1013.1 1007.4
16 14.01 Ю 5 н/о н/о +22.1 +13.5 58 +25 +25 комфорт 1013.0 1007.3
17 14.01 Ю 4 н/о н/о +20.9 +13.1 61 +24 +24 комфорт 1012.9 1007.2
18 14.01 Ю 5 н/о н/о +20.7 +12.7 60 +23 +23 комфорт 1012.9 1007.2
19 14.01 В 5 н/о н/о +20.1 +11.3 57 +22 +22 комфорт 1013.7 1008.0
20 14.01 ЮВ 5 н/о н/о +19.0 +10.8 59 +20 +20 1014.5 1008.8
21 14.01 В 3 н/о н/о +20.8 +10.0 50 +23 +23 комфорт 1015.4 1009.7
22 14.01 С 6 н/о н/о +25.2 +9.1 36 +26 +26 жарко 1015.6 1009.9
23 14.01 В 7 н/о н/о +26.5 +8.0 31 +26 +26 жарко 1015.6 1009.9
00 15.01 В 7 н/о н/о +28.3 +7.5 27 +28 +28 жарко 1015.4 1009.7
01 15.01 ЮВ 6 н/о н/о +30.5 +7.7 24 +29 +29 жарко 1015.1 1009.4
02 15.01 ЮВ 5 н/о н/о +30.7 +7.2 23 +29 +29 жарко 1014.8 1009.1
03 15.01 В 5 н/о н/о +32.0 +6.2 20 +30 +30 жарко 1014.2 1008.5
04 15.01 ЮВ 5 н/о н/о +34.0 +4.6 16 +31 +31 жарко 1013.1 1007.4
05 15.01 В 3 н/о н/о +34.6 +2.2 13 +31 +31 жарко 1012.0 1006.3
06 15.01 ЮВ 4 н/о н/о +36.4 +1.2 11 +33 +33 жарко 1011.0 1005.3
07 15.01 ЮЗ 4 н/о н/о +36.4 -0.1 10 +33 +33 жарко 1010.4 1004.7
08 15.01 Ю 6 н/о н/о +36.3 -0.2 10 +33 +33 жарко 1010.0 1004.3
09 15.01 Ю 5 н/о н/о +35.5 +1.8 12 +32 +32 жарко 1009.7 1004.0
10 15.01 Ю 5 н/о н/о +33.4 +5.0 17 +31 +31 жарко 1009.8 1004.1
11 15.01 Ю 7 н/о н/о +31.2 +6.3 21 +30 +30 жарко 1010.2 1004.5
12 15.01 ЮВ 5 н/о н/о +29.2 +6.0 23 +28 +28 жарко 1011.0 1005.3
13 15.01 ЮВ 4 н/о н/о +27.7 +5.9 25 +27 +27 жарко 1011.3 1005.6
14 15.01 Ю 5 н/о н/о +26.0 +5.6 27 +25 +25 комфорт 1011.1 1005.4
15 15.01 Ю 4 н/о н/о +24.3 +5.6 30 +24 +24 комфорт 1010.8 1005.1
16 15.01 Ю 5 н/о н/о +22.7 +5.2 32 +23 +23 комфорт 1010.7 1005.0
17 15.01 ЮВ 5 н/о н/о +21.6 +4.7 33 +22 +22 комфорт 1010.7 1005.0
18 15.01 Ю 3 н/о н/о +19.7 +4.6 37 +21 +21 комфорт 1011.1 1005.4
19 15.01 Ю 5 н/о н/о +20.0 +4.9 37 +21 +21 комфорт 1011.2 1005.5
20 15.01 Ю 5 н/о н/о +19.7 +4.6 37 +20 +20 1011.3 1005.6
21 15.01 Ю 5 н/о н/о +23.6 +5.0 30 +23 +23 комфорт 1011.7 1006.0
22 15.01 ЮВ 6 н/о н/о +27.0 +4.7 24 +26 +26 жарко 1011.9 1006.2
23 15.01 В 7 н/о н/о +31.1 +3.2 17 +29 +29 жарко 1011.5 1005.8
00 16.01 В 8 н/о н/о +33.9 +2.7 14 +31 +31 жарко 1011.1 1005.4
01 16.01 В 6 н/о н/о +35.3 +1.6 12 +32 +32 жарко 1010.6 1004.9
02 16.01 СВ 6 н/о н/о +36.4 -0.1 10 +33 +33 жарко 1010.0 1004.3
03 16.01 В 5 н/о н/о +37.9 -2.0 8 +34 +34 очень
жарко
1009.3 1003.6
04 16.01 В 3 н/о н/о +38.8 -3.2 7 +35 +35 очень
жарко
1008.7 1003.0
05 16.01 В 4 н/о н/о +40.3 -2.1 7 +36 +36 очень
жарко
1007.9 1002.2
06 16.01 СВ 5 н/о н/о +39.6 -4.6 6 +35 +35 очень
жарко
1007.2 1001.5
07 16.01 В 6 н/о н/о +40.8 -3.8 6 +37 +37 очень
жарко
1006.7 1001.0
08 16.01 В 5 н/о н/о +40.1 -4.3 6 +36 +36 очень
жарко
1006.5 1000.8
09 16.01 В 4 н/о н/о +39.4 -4.8 6 +35 +35 очень
жарко
1006.7 1001.0
10 16.01 В 4 н/о н/о +35.6 -3.7 8 +32 +32 жарко 1007.2 1001.5
11 16.01 В 4 н/о н/о +31.6 -2.4 11 +28 +28 жарко 1007.5 1001.8
12 16.01 ЮВ 4 н/о н/о +29.0 -2.2 13 +26 +26 жарко 1007.8 1002.1
13 16.01 ЮВ 4 н/о н/о +27.1 -1.7 15 +25 +25 комфорт 1007.8 1002.1
14 16.01 Ю 5 н/о н/о +26.7 -2.1 15 +24 +24 комфорт 1007.7 1002.0
15 16.01 Ю 4 н/о н/о +25.2 -0.8 18 +23 +23 комфорт 1007.0 1001.3

 

Местоположение метеостанции Marree Aero (Южная Австралия, Австралия): широта -29.66 долгота 138.06 высота над уровнем моря 51 м.

В архиве по умолчанию представлена погода в Marree Aero за последнюю неделю. Архивные данные за месяц целиком и за предыдущие месяцы, начиная с января 2011 года, Вы можете получить, выбрав интересующий диапазон дат из раскрывающегося списка и нажав кнопку "Ввод!".

Внимание! Время в таблицах - всемирное. Для получения местного времени необходимо прибавить поправку, которая в Marree Aero равна 9.5 ч.

Ветер - указаны скорость ветра в м/с - средняя за 10 мин, порывы в срок и между сроками (в фигурных скобках) и направление, откуда дует ветер: С - северный, СВ - северо-восточный, В - восточный, ЮВ - юго-восточный, Ю - южный, ЮЗ - юго-западный, З - западный, СЗ - северо-западный.
Видимость - горизонтальная дальность видимости в метрах или километрах. При видимости от 1 до 10 км при отсутствии осадков обычно наблюдается дымка, при ухудшении видимости до 1 км и менее - туман. В сухую погоду видимость может ухудшаться дымом, пылью или мглою.
Явления - указаны атмосферные явления, наблюдавшиеся в срок или в последний час перед сроком; фигурными скобками обозначены явления, наблюдавшиеся между сроками (за 1-3 часа до срока); квадратными скобками обозначены град или гололедные отложения с указанием их диаметра в мм.
Облачность - указаны через наклонную черту общая и нижняя облачность в баллах и высота нижней границы облаков в метрах; квадратными скобками обозначены формы облаков: Ci - перистые, Cs - перисто-слоистые, Cc - перисто-кучевые, Ac - высококучевые, As - высокослоистые, Sc - слоисто-кучевые, Ns - слоисто-дождевые, Cu - кучевые, Cb - кучево-дождевые. Подробнее классификацию облаков см. в Атласе облаков (PDF).
T - Температура воздуха - температура, измеренная на высоте 2 м над землей.
Td - Температура точки росы - температура, при понижении до которой содержащийся в воздухе водяной пар достигнет насыщения.
f - Относительная влажность воздуха - влажноcть воздуха, измеренная на высоте 2 м над землей.
Te - Эффективная температура - температура, которую ощущает одетый по сезону человек в тени. Характеристика душности погоды. При расчете учитывается влияние влажности воздуха и скорости ветра на теплоощущения человека.
Tes - Эффективная температура на солнце - температура, которую ощущает человек, с поправкой на солнечный нагрев. Характеристика знойности погоды. Зависит от высоты солнца над горизонтом, облачности и скорости ветра. Ночью, в пасмурную погоду, а также при ветре 12 м/с и более поправка равна нулю.
P - Атмосферное давление - приведенное к уровню моря атмосферное давление.
Po - Атмосферное давление - измеренное на уровне метеостанции атмосферное давление.
Tmin - Минимальная температура - минимум температуры воздуха на высоте 2 м над землей.
Tmax - Максимальная температура - максимум температуры воздуха на высоте 2 м над землей.
R - Количество осадков - Количество выпавших осадков, мм. При наведении курсора мыши на число - период времени, за который выпало указанное количество осадков.
S - Снежный покров - Высота снежного покрова, см. При наведении курсора мыши на число - состояние снежного покрова и степень покрытия местности в баллах.